Location: Aigremont
(47.7188°N, 3.8925°E)
Time: 16:52:40
(UTC+00:00)

Helios 1A Rocket - Pass Details

Date: 18 February 2020
Orbit: 563 x 588 km, 98.3° (Epoch: 06 April)

Event Time Altitude Azimuth Distance (km) Brightness Sun altitude
Rises 06:06:08 0° 12° (NNE) 2,831 6.5 -7.4°
Reaches altitude 10° 06:08:19 10° 10° (N) 1,924 5.6 -7.1°
Maximum altitude 06:12:28 70° 287° (WNW) 627 2.9 -6.4°
Drops below altitude 10° 06:16:34 10° 204° (SSW) 1,899 5.4 -5.7°
Sets 06:18:42 0° 202° (SSW) 2,791 6.3 -5.3°
